Theta_e
335 333 332 331 330 329 328 328 329 329 331 329 330 332 332 335 336 336 337 340 338 340 339 341 340 341 339 343 344 343 343 340 335 339 339 340 341 343 347 347 345 343 342
330 328 326 325 324 323 323 324 324 324 325 324 325 325 326 327 331 332 332 334 334 334 336 338 339 342 341 341 340 341 340 341 339 336 338 338 341 342 343 343 345 346 344
326 322 321 320 319 318 319 319 319 318 318 319 318 317 318 320 322 323 325 326 328 329 332 333 336 337 338 339 338 338 337 339 339 337 336 338 340 340 339 340 340 342 347
320 319 317 316 316 316 316 317 317 317 316 316 316 315 316 317 318 317 317 317 319 322 326 330 333 335 337 336 337 337 335 334 334 335 334 334 336 339 340 337 336 341 340
316 315 314 314 315 315 315 316 316 316 316 315 315 315 315 317 319 318 318 317 315 317 320 324 332 336 340 339 337 336 334 333 332 330 329 331 333 334 335 338 338 336 338
313 312 313 314 314 314 316 315 315 315 314 313 313 313 313 317 321 322 321 321 320 316 316 320 328 335 335 337 337 338 337 334 331 329 329 329 331 333 336 335 335 333 330
311 312 313 313 314 319 318 316 314 314 314 311 311 312 312 312 320 319 319 317 321 318 315 319 325 333 333 331 333 334 335 336 336 333 330 329 330 333 333 332 333 332 332
310 311 313 313 316 317 315 314 311 312 311 309 309 310 310 311 315 315 316 310 316 317 319 325 327 326 327 329 329 331 332 333 333 335 337 336 335 336 334 335 333 333 336
310 310 312 312 311 311 311 308 307 307 307 308 307 307 306 307 312 313 311 307 309 309 313 317 320 326 325 323 322 323 325 329 332 330 332 333 333 333 333 332 333 332 328
310 311 311 311 309 308 308 307 305 305 305 306 306 305 308 304 310 312 310 306 305 306 308 312 317 320 319 316 316 318 318 322 326 327 329 330 330 331 332 332 331 330 330
314 314 312 311 309 307 306 306 305 304 303 302 302 302 302 304 305 310 309 307 306 307 307 309 311 314 313 311 312 315 320 322 323 322 325 327 328 328 329 330 331 333 329
310 310 309 309 311 309 305 305 305 304 302 301 300 301 302 303 307 308 308 308 308 306 307 309 311 312 309 310 311 315 317 319 322 319 320 322 324 325 328 331 332 332 334
308 307 306 308 309 307 306 305 304 303 302 301 300 299 299 302 302 306 306 307 308 306 308 310 311 310 311 314 316 317 319 317 317 317 318 321 323 326 328 326 331 331 333
306 305 305 304 305 304 305 305 304 303 302 302 301 299 298 299 299 301 301 300 306 305 307 308 310 311 312 312 313 314 315 318 321 321 319 321 323 324 322 323 321 322 322
305 305 304 303 303 304 304 304 305 305 305 304 302 300 298 297 300 300 298 298 300 303 304 307 307 307 307 307 308 310 313 314 313 316 318 320 320 321 322 323 325 324 321
301 302 303 303 301 302 303 304 305 306 305 301 301 302 301 301 300 298 297 297 299 301 301 303 304 305 305 306 304 304 306 307 307 309 311 314 319 321 321 320 323 323 323
300 301 301 298 298 300 300 301 300 301 302 301 299 299 299 301 299 296 296 297 299 300 297 300 301 302 303 305 303 303 302 303 304 304 306 308 310 313 317 319 319 320 320
301 305 302 299 298 300 297 297 298 297 297 298 299 299 298 297 296 296 297 297 297 297 295 296 299 300 301 301 303 301 301 300 300 300 301 303 305 307 310 313 317 320 320
302 302 302 300 299 300 299 298 298 298 297 296 296 298 299 298 296 296 297 297 296 296 295 296 297 297 299 299 300 301 301 300 299 298 298 298 300 303 305 309 311 309 312
305 309 310 304 303 300 300 301 300 300 299 297 297 296 298 298 297 297 298 297 297 297 297 297 298 297 298 299 299 299 299 300 298 297 296 297 297 299 302 305 308 310 313
307 307 311 304 304 301 301 303 302 301 300 299 299 299 298 298 298 296 297 298 298 299 299 299 299 299 299 299 299 298 298 299 298 296 296 295 296 296 298 303 306 309 312
309 307 303 304 304 304 304 305 304 303 302 301 301 301 299 300 298 298 297 298 300 300 300 300 300 300 300 300 300 299 299 298 299 296 294 294 295 294 296 301 304 308 311
309 306 303 305 305 306 305 305 307 306 304 304 303 303 302 300 301 301 299 300 300 300 300 299 300 298 299 300 300 300 299 299 297 293 291 292 292 293 294 298 302 306 308
307 304 303 306 307 307 305 305 307 304 307 308 305 304 305 304 301 301 300 300 301 303 303 298 298 297 297 300 301 300 297 294 293 290 290 290 290 291 293 297 301 306 306
304 302 303 303 304 306 306 306 306 309 309 307 305 304 305 307 305 301 301 302 302 301 300 298 297 296 296 297 297 296 293 287 288 288 287 288 289 289 291 296 300 304 305
303 302 302 303 304 306 306 308 309 307 306 306 305 304 305 306 302 302 304 304 302 301 301 299 297 296 296 295 295 291 285 284 285 284 284 284 286 289 293 295 298 301 302
Wind_Speed
4 5 7 6 4 5 7 6 6 6 7 8 8 8 8 8 8 6 6 6 6 5 4 6 9 8 5 5 6 6 7 6 8 4 4 5 5 6 5 5 5 5 4
3 3 6 5 7 8 8 7 7 8 8 8 8 8 9 8 8 8 7 7 7 8 6 4 7 5 9 6 5 7 9 8 8 12 4 5 8 7 6 5 6 5 6
1 6 6 6 7 6 6 6 6 6 6 7 7 7 6 7 6 7 7 8 7 7 7 7 6 5 6 5 5 5 5 4 6 5 5 4 5 3 4 4 5 6 5
7 7 8 7 6 6 6 6 6 6 6 7 7 7 8 7 4 6 6 6 7 8 8 7 8 6 7 7 6 6 4 4 3 4 4 4 4 4 4 4 4 5 7
8 8 6 3 5 5 5 6 6 6 6 6 6 7 6 7 8 10 8 7 7 8 8 9 8 8 12 10 6 7 5 4 4 4 4 3 3 3 5 4 7 3 3
6 5 5 6 3 2 6 6 6 6 5 5 6 6 8 7 18 18 17 11 9 7 9 10 9 13 8 9 9 15 9 6 5 4 3 4 6 4 4 4 4 3 3
6 4 2 3 5 7 7 6 6 6 6 6 6 6 7 6 18 19 23 9 9 7 7 8 9 8 9 6 8 8 9 13 11 6 6 6 5 6 4 4 5 4 4
5 5 5 5 6 6 7 7 8 7 7 8 8 7 7 7 17 19 21 10 8 9 9 9 8 8 8 9 8 8 7 6 7 7 8 9 8 6 7 5 5 5 3
6 6 6 6 6 6 6 6 6 5 6 6 7 8 7 8 17 18 17 9 10 10 10 10 10 9 12 13 7 6 8 9 6 13 14 14 13 9 6 3 6 5 4
3 4 4 4 4 5 4 4 3 3 5 6 8 7 10 8 15 18 18 8 11 10 10 10 13 11 16 16 10 7 6 7 6 7 5 8 12 8 13 9 5 7 3
5 5 3 1 1 1 2 3 3 5 5 6 6 7 7 8 9 15 17 8 7 9 9 10 9 18 19 20 16 8 8 5 10 5 5 5 5 5 6 7 8 6 4
3 3 2 2 2 0 3 4 4 5 6 6 7 7 6 7 14 15 19 17 15 8 9 8 10 18 19 18 13 13 14 11 5 4 4 5 4 4 4 5 8 9 8
0 1 2 2 3 3 3 5 4 4 4 5 4 5 6 7 7 17 19 20 17 11 8 13 16 14 14 8 11 14 10 4 4 3 4 5 4 5 5 4 5 7 9
0 1 3 4 5 4 3 3 4 4 4 4 4 4 5 6 5 7 8 8 14 11 14 9 11 11 11 11 11 10 8 8 7 6 4 4 4 3 3 4 4 4 3
2 3 5 4 5 6 4 4 4 6 6 5 4 3 3 5 5 8 7 6 7 9 9 7 9 9 10 10 10 10 9 9 9 8 8 6 5 3 4 2 3 3 4
3 3 2 3 4 3 4 6 9 14 15 10 10 7 4 9 11 11 12 14 12 16 4 6 7 9 9 8 9 9 9 12 10 9 9 9 8 5 4 3 3 4 5
3 4 3 3 4 3 2 3 4 6 7 7 4 12 13 10 9 10 10 12 9 9 4 5 6 6 7 8 7 7 8 9 10 9 9 9 8 8 8 4 3 4 5
2 6 3 3 3 4 4 4 3 3 4 5 6 3 9 10 10 11 9 8 5 4 2 4 5 5 5 5 6 6 6 7 8 9 9 10 9 8 7 6 7 5 6
3 3 4 4 5 5 4 5 4 4 4 4 4 5 5 6 8 9 6 3 4 5 4 5 4 5 4 4 4 5 6 6 7 7 8 8 10 9 8 7 7 8 9
4 5 6 4 4 4 4 4 5 4 5 4 4 4 3 3 3 3 3 3 4 5 5 5 6 5 5 4 4 4 5 6 5 6 7 7 8 8 8 9 8 8 7
4 4 7 4 4 4 4 5 4 4 5 4 5 5 8 3 5 4 4 4 4 5 5 5 5 5 5 5 4 4 4 4 5 6 7 7 7 9 9 9 8 8 8
4 4 4 4 3 4 4 4 4 5 5 5 5 4 8 3 4 5 5 4 4 4 4 3 4 4 5 5 5 4 4 5 6 6 7 8 7 7 8 8 8 8 6
4 4 5 4 4 5 5 5 5 6 5 5 5 5 5 4 4 5 5 5 4 4 4 3 3 4 4 4 3 4 4 5 5 3 7 8 7 7 7 8 9 9 7
4 5 6 5 4 5 5 6 5 6 6 7 6 4 5 4 5 6 5 5 4 4 3 4 4 5 5 5 4 4 4 4 4 4 7 8 8 8 7 7 8 9 8
5 5 5 5 5 5 6 5 5 6 6 5 5 4 4 4 4 5 5 4 4 5 5 5 4 6 7 9 8 8 7 7 6 8 6 8 9 11 8 7 9 8 8
6 5 5 5 5 5 4 4 4 5 5 6 5 5 4 4 5 5 6 4 4 4 5 4 6 8 9 7 8 10 8 7 8 9 6 5 6 7 6 8 11 6 8
Wind_Direction
3 24 53 45 21 29 39 24 5 358 11 13 4 8 3 2 358 356 358 359 346 311 232 223 244 253 238 227 203 212 221 206 237 264 227 220 227 231 222 218 241 269 260
62 53 51 40 34 39 33 20 11 16 15 10 8 9 1 354 354 18 7 3 350 344 331 259 247 240 255 254 229 230 231 222 220 244 221 227 216 221 226 203 223 230 244
164 65 53 43 36 30 23 11 11 9 1 1 6 5 353 341 351 11 5 349 340 326 321 314 293 246 242 233 234 236 223 204 218 235 242 220 227 208 218 229 217 226 226
76 67 50 32 18 19 8 3 9 3 8 1 355 349 350 336 8 1 340 325 315 313 307 303 294 287 267 252 217 224 223 236 202 218 245 247 224 223 202 196 230 219 237
59 52 40 10 16 12 5 8 1 359 357 353 350 350 345 340 5 352 341 315 296 294 292 293 283 282 280 263 251 244 209 213 211 213 225 219 227 213 210 198 228 216 236
76 64 31 14 338 4 25 5 2 345 347 359 351 343 345 355 358 0 354 332 313 286 293 294 292 297 284 291 281 249 222 203 224 197 209 230 250 227 212 207 198 179 252
75 63 48 17 15 21 17 6 1 351 352 351 346 350 343 339 4 1 354 338 332 311 285 285 295 297 316 309 308 292 264 249 228 197 215 219 239 225 199 203 193 191 201
73 48 33 18 26 24 23 10 2 351 348 352 358 357 352 352 356 357 352 334 329 329 331 325 322 310 315 322 311 299 282 266 236 226 224 240 228 239 207 229 211 218 225
45 31 23 34 34 27 28 14 358 3 348 350 351 349 350 344 348 354 355 340 335 329 331 326 329 329 344 359 342 324 309 289 264 232 223 228 233 216 188 192 237 215 243
37 52 46 54 35 16 15 357 348 350 341 347 345 343 338 335 340 351 357 345 337 332 325 322 325 331 331 340 331 313 297 287 312 316 283 257 248 230 198 205 192 214 199
337 16 44 37 359 357 340 322 340 347 347 347 343 332 329 333 332 353 354 344 328 324 326 325 324 320 319 315 309 284 267 284 293 279 279 269 255 208 198 206 211 199 198
19 42 2 308 264 43 304 310 339 352 352 345 348 344 338 335 341 347 350 354 349 327 317 318 314 316 308 303 307 287 285 283 262 270 264 264 262 258 223 199 208 216 223
146 213 280 296 287 318 291 305 315 322 327 325 339 334 330 335 337 345 344 349 352 351 329 326 319 325 334 330 342 349 347 310 289 274 268 267 244 242 248 216 200 205 222
102 262 275 287 293 290 287 279 290 294 295 286 300 308 315 319 321 337 335 333 344 348 343 342 351 353 4 359 1 357 351 344 335 310 283 274 285 279 259 224 208 185 198
303 287 277 280 280 287 278 246 270 262 223 249 233 234 280 310 301 320 317 323 330 331 329 350 4 6 8 8 2 355 349 352 354 342 330 301 283 276 276 272 235 223 209
311 282 298 295 301 295 289 309 227 246 275 255 234 205 236 235 281 302 327 329 336 340 342 358 358 359 2 4 5 359 357 357 347 343 338 341 334 316 302 293 249 238 239
282 319 326 318 304 299 292 253 296 317 291 299 277 231 233 239 266 293 311 325 328 350 356 346 343 347 350 356 0 3 3 356 342 349 339 340 341 335 331 303 286 272 259
278 230 235 267 269 279 285 283 257 264 297 310 319 287 256 252 251 268 291 329 329 352 307 317 316 321 327 332 343 344 352 343 360 349 353 339 340 328 329 330 330 294 271
333 324 318 286 273 260 267 286 280 292 277 281 309 325 315 311 275 276 260 228 276 295 301 302 291 296 301 304 308 313 317 334 344 335 349 344 343 333 329 331 321 317 312
288 284 289 297 292 265 274 304 307 298 283 274 290 272 292 351 331 303 287 268 279 277 287 283 290 278 275 275 286 296 309 320 328 329 333 332 333 328 323 322 320 317 304
292 305 308 311 289 270 279 289 287 289 289 282 263 255 230 224 273 266 282 291 280 288 288 292 295 290 287 281 273 276 284 297 312 323 321 320 324 329 322 317 314 306 314
274 283 300 294 281 294 286 278 278 264 266 273 281 284 290 217 248 267 261 264 275 272 265 271 293 293 289 285 286 283 290 297 313 316 319 317 314 317 317 313 313 310 317
269 282 289 281 263 279 288 275 269 257 265 285 282 281 297 274 261 262 253 253 265 282 281 275 275 302 311 311 289 264 275 289 296 297 307 302 301 304 312 306 306 312 339
254 271 271 261 268 271 270 271 275 280 271 269 276 281 280 290 290 284 264 258 259 268 269 285 279 290 302 308 300 278 283 286 278 286 289 290 294 296 295 295 293 305 316
244 257 263 265 277 282 297 293 286 290 290 278 282 271 277 273 278 287 268 256 263 283 297 305 302 299 308 312 312 307 295 311 293 284 276 271 273 286 287 290 295 306 314
260 257 268 277 278 287 298 306 321 314 302 306 301 295 308 311 293 290 295 287 303 313 315 322 321 324 320 315 311 326 323 311 311 309 299 268 268 273 275 281 287 293 295